TimeCDT,TemperatureF,Dew PointF,Humidity,Sea Level PressureIn,VisibilityMPH,Wind Direction,Wind SpeedMPH,Gust SpeedMPH,PrecipitationIn,Events,Conditions,WindDirDegrees,DateUTC
12:15 AM,-5.8,-9.4,84,30.08,10.0,Calm,Calm,-,N/A,,Clear,0,2013-03-21 05:15:00
12:35 AM,-5.8,-9.4,84,30.08,10.0,Calm,Calm,-,N/A,,Clear,0,2013-03-21 05:35:00
12:55 AM,-5.8,-11.2,77,30.08,10.0,Calm,Calm,-,N/A,,Clear,0,2013-03-21 05:55:00
1:15 AM,-7.6,-13.0,77,30.08,10.0,Calm,Calm,-,N/A,,Clear,0,2013-03-21 06:15:00
1:35 AM,-7.6,-13.0,77,30.08,10.0,Calm,Calm,-,N/A,,Clear,0,2013-03-21 06:35:00
1:55 AM,-9.4,-14.8,77,30.08,10.0,Calm,Calm,-,N/A,,Clear,0,2013-03-21 06:55:00
2:15 AM,-9.4,-14.8,77,30.08,10.0,Calm,Calm,-,N/A,,Clear,0,2013-03-21 07:15:00
2:35 AM,-9.4,-14.8,77,30.08,10.0,Calm,Calm,-,N/A,,Clear,0,2013-03-21 07:35:00
2:55 AM,-11.2,-16.6,77,30.08,10.0,Calm,Calm,-,N/A,,Clear,0,2013-03-21 07:55:00
3:15 AM,-11.2,-16.6,77,30.08,10.0,Calm,Calm,-,N/A,,Clear,0,2013-03-21 08:15:00
3:35 AM,-13.0,-16.6,84,30.08,10.0,Calm,Calm,-,N/A,,Clear,0,2013-03-21 08:35:00
3:55 AM,-13.0,-16.6,84,30.07,10.0,Calm,Calm,-,N/A,,Clear,0,2013-03-21 08:55:00
4:15 AM,-13.0,-16.6,84,30.06,10.0,Calm,Calm,-,N/A,,Clear,0,2013-03-21 09:15:00
4:35 AM,-13.0,-18.4,77,30.06,10.0,Calm,Calm,-,N/A,,Clear,0,2013-03-21 09:35:00
4:55 AM,-13.0,-18.4,77,30.06,10.0,Calm,Calm,-,N/A,,Clear,0,2013-03-21 09:55:00
5:15 AM,-14.8,-18.4,84,30.06,10.0,Calm,Calm,-,N/A,,Clear,0,2013-03-21 10:15:00
5:35 AM,-14.8,-18.4,84,30.07,10.0,Calm,Calm,-,N/A,,Clear,0,2013-03-21 10:35:00
5:55 AM,-14.8,-20.2,77,30.07,10.0,Calm,Calm,-,N/A,,Clear,0,2013-03-21 10:55:00
6:15 AM,-14.8,-18.4,84,30.07,10.0,Calm,Calm,-,N/A,,Clear,0,2013-03-21 11:15:00
6:35 AM,-14.8,-20.2,77,30.07,10.0,Calm,Calm,-,N/A,,Clear,0,2013-03-21 11:35:00
6:55 AM,-14.8,-20.2,77,30.08,10.0,Calm,Calm,-,N/A,,Clear,0,2013-03-21 11:55:00
7:15 AM,-14.8,-22.0,70,30.08,10.0,Calm,Calm,-,N/A,,Clear,0,2013-03-21 12:15:00
7:35 AM,-14.8,-22.0,70,30.09,10.0,Calm,Calm,-,N/A,,Clear,0,2013-03-21 12:35:00
7:55 AM,-13.0,-18.4,77,30.08,10.0,Calm,Calm,-,N/A,,Clear,0,2013-03-21 12:55:00
8:15 AM,-11.2,-16.6,77,30.08,10.0,Calm,Calm,-,N/A,,Clear,0,2013-03-21 13:15:00
8:35 AM,-7.6,-11.2,84,30.08,10.0,Calm,Calm,-,N/A,,Clear,0,2013-03-21 13:35:00
8:55 AM,-2.2,-5.8,85,30.09,10.0,Calm,Calm,-,N/A,,Scattered Clouds,0,2013-03-21 13:55:00
9:15 AM,3.2,-0.4,85,30.08,10.0,Calm,Calm,-,N/A,,Clear,0,2013-03-21 14:15:00
9:35 AM,5.0,-2.2,72,30.08,10.0,Calm,Calm,-,N/A,,Clear,0,2013-03-21 14:35:00
9:55 AM,8.6,1.4,73,30.08,10.0,West,3.5,-,N/A,,Clear,260,2013-03-21 14:55:00
10:15 AM,12.2,3.2,67,30.08,10.0,West,3.5,-,N/A,,Clear,270,2013-03-21 15:15:00
10:35 AM,17.6,5.0,58,30.07,10.0,West,4.6,-,N/A,,Clear,270,2013-03-21 15:35:00
10:55 AM,19.4,5.0,54,30.06,10.0,NW,4.6,-,N/A,,Clear,320,2013-03-21 15:55:00
11:15 AM,19.4,5.0,54,30.06,10.0,NNW,9.2,-,N/A,,Clear,330,2013-03-21 16:15:00
11:35 AM,19.4,5.0,54,30.06,10.0,WNW,9.2,-,N/A,,Clear,300,2013-03-21 16:35:00
11:55 AM,21.2,5.0,50,30.06,10.0,NW,9.2,16.1,N/A,,Clear,310,2013-03-21 16:55:00
12:15 PM,21.2,5.0,50,30.06,10.0,NW,8.1,-,N/A,,Clear,320,2013-03-21 17:15:00
12:35 PM,21.2,6.8,54,30.06,10.0,Calm,Calm,-,N/A,,Clear,0,2013-03-21 17:35:00
12:55 PM,23.0,6.8,50,30.06,10.0,North,5.8,-,N/A,,Clear,360,2013-03-21 17:55:00
1:15 PM,23.0,8.6,54,30.06,10.0,WNW,5.8,-,N/A,,Clear,300,2013-03-21 18:15:00
1:35 PM,23.0,6.8,50,30.06,10.0,NW,9.2,-,N/A,,Clear,310,2013-03-21 18:35:00
1:55 PM,23.0,8.6,54,30.05,10.0,West,9.2,-,N/A,,Clear,270,2013-03-21 18:55:00
2:15 PM,24.8,8.6,50,30.04,10.0,West,11.5,-,N/A,,Clear,280,2013-03-21 19:15:00
2:35 PM,24.8,6.8,46,30.04,10.0,NW,4.6,-,N/A,,Clear,320,2013-03-21 19:35:00
2:55 PM,24.8,8.6,50,30.03,10.0,WNW,6.9,-,N/A,,Clear,300,2013-03-21 19:55:00
3:15 PM,26.6,8.6,47,30.03,10.0,West,9.2,-,N/A,,Clear,260,2013-03-21 20:15:00
3:35 PM,26.6,8.6,47,30.03,10.0,West,9.2,-,N/A,,Clear,270,2013-03-21 20:35:00
3:55 PM,26.6,8.6,47,30.03,10.0,West,5.8,-,N/A,,Clear,260,2013-03-21 20:55:00
4:15 PM,26.6,8.6,47,30.02,10.0,West,10.4,-,N/A,,Clear,270,2013-03-21 21:15:00
4:35 PM,26.6,8.6,47,30.02,10.0,WNW,5.8,-,N/A,,Clear,290,2013-03-21 21:35:00
4:55 PM,26.6,8.6,47,30.01,10.0,West,8.1,-,N/A,,Clear,260,2013-03-21 21:55:00
5:15 PM,26.6,8.6,47,30.01,10.0,West,8.1,-,N/A,,Clear,270,2013-03-21 22:15:00
5:35 PM,26.6,8.6,47,30.01,10.0,West,6.9,-,N/A,,Clear,270,2013-03-21 22:35:00
5:55 PM,26.6,8.6,47,30.01,10.0,West,5.8,-,N/A,,Clear,270,2013-03-21 22:55:00
6:15 PM,26.6,8.6,47,30.01,10.0,NW,5.8,-,N/A,,Clear,320,2013-03-21 23:15:00
6:35 PM,26.6,6.8,43,30.01,10.0,NNW,8.1,-,N/A,,Clear,340,2013-03-21 23:35:00
6:55 PM,24.8,6.8,46,30.01,10.0,NNW,6.9,-,N/A,,Clear,330,2013-03-21 23:55:00
7:15 PM,24.8,6.8,46,30.02,10.0,NW,5.8,-,N/A,,Clear,320,2013-03-22 00:15:00
7:35 PM,23.0,6.8,50,30.02,10.0,NW,4.6,-,N/A,,Clear,320,2013-03-22 00:35:00
7:55 PM,23.0,6.8,50,30.02,10.0,NW,3.5,-,N/A,,Clear,310,2013-03-22 00:55:00
8:15 PM,19.4,5.0,54,30.02,10.0,Calm,Calm,-,N/A,,Clear,0,2013-03-22 01:15:00
8:35 PM,14.0,8.6,79,30.02,10.0,Calm,Calm,-,N/A,,Clear,0,2013-03-22 01:35:00
9:15 PM,12.2,5.0,73,30.03,10.0,Calm,Calm,-,N/A,,Clear,0,2013-03-22 02:15:00
9:35 PM,10.4,5.0,79,30.03,10.0,Calm,Calm,-,N/A,,Clear,0,2013-03-22 02:35:00
9:55 PM,6.8,3.2,85,30.04,10.0,Calm,Calm,-,N/A,,Clear,0,2013-03-22 02:55:00
10:15 PM,8.6,3.2,79,30.04,10.0,Calm,Calm,-,N/A,,Clear,0,2013-03-22 03:15:00
10:35 PM,5.0,1.4,85,30.04,10.0,Calm,Calm,-,N/A,,Clear,0,2013-03-22 03:35:00
10:55 PM,3.2,1.4,92,30.04,10.0,Calm,Calm,-,N/A,,Clear,0,2013-03-22 03:55:00
11:15 PM,3.2,1.4,92,30.04,10.0,Calm,Calm,-,N/A,,Clear,0,2013-03-22 04:15:00
11:35 PM,3.2,-0.4,85,30.04,10.0,Calm,Calm,-,N/A,,Clear,0,2013-03-22 04:35:00
11:55 PM,3.2,-0.4,85,30.04,10.0,Calm,Calm,-,N/A,,Clear,0,2013-03-22 04:55:00